Thermal, CA

3:14 AM PDT on August 17, 2017 (GMT -0700)
Desert Resorts Regional

Weather History for KTRM - April, 2013

Change the Weather History Date:

Friday, April 19, 2013

  Actual Average Record
Temperature  
Mean Temperature 65 °F 71 °F  
Max Temperature 89 °F 88 °F 104 °F (1999)
Min Temperature 41 °F 54 °F 41 °F (1972)
Degree Days  
Heating Degree Days 0 0  
Month to date heating degree days 2 19  
Since 1 July heating degree days 1124 1176  
Cooling Degree Days 0 7  
Month to date cooling degree days 125 94  
Year to date cooling degree days 287 168  
Growing Degree Days 14 (Base 50)    
Moisture  
Dew Point 18 °F    
Average Humidity 28    
Maximum Humidity 51    
Minimum Humidity 5    
Precipitation  
Precipitation 0.00 in 0.00 in 0.01 in (1951)
Month to date precipitation 0.00 0.05  
Year to date precipitation 0.44 1.76  
Since 1 July precipitation 2.62  
Snow  
Snow 0.00 in - - ()
Month to date snowfall 0.0  
Year to date snowfall 0.0  
Snow Depth 0.00 in    
Sea Level Pressure  
Sea Level Pressure 30.04 in    
Wind  
Wind Speed 6 mph (North)    
Max Wind Speed 17 mph    
Max Gust Speed 20 mph    
Visibility 10 miles    
Events      
T = Trace of Precipitation, MM = Missing Value Source: NWS Daily Summary

Daily Weather History Graph

Daily Weather History Graph

Search for Another Location

Airport or City:

Trip Planner

Search our weather history database for the weather conditions in past years. The results will help you decide how hot, cold, wet, or windy it might be!

Date:

Astronomy

Apr. 19, 2013 Rise Set
Actual Time 6:08 AM PDT 7:18 PM PDT
Civil Twilight 5:43 AM PDT 7:44 PM PDT
Nautical Twilight 5:12 AM PDT 8:15 PM PDT
Astronomical Twilight 4:40 AM PDT 8:47 PM PDT
Moon 1:24 PM PDT (4/19) 2:08 AM PDT (4/19)
Length of Visible Light 14h 01m
Length of Day
13h 10m
Waxing Gibbous, 62% of the Moon is Illuminated
Apr 19
Waxing Gibbous
Apr 25
Full
May 2
Last Quarter
May 9
New
May 17
First Quarter

Hourly Weather History & Observations

Time (PDT) Temp. Windchill Dew Point Humidity Pressure Visibility Wind Dir Wind Speed Gust Speed Precip Events Conditions
12:52 AM 44.1 °F 42.5 °F 21.0 °F 40% 30.13 in 10.0 mi SE 3.5 mph - N/A   Clear
1:52 AM 51.1 °F - 21.0 °F 31% 30.12 in 10.0 mi North 4.6 mph - N/A   Clear
2:52 AM 46.9 °F - 23.0 °F 39% 30.11 in 10.0 mi NW 3.5 mph - N/A   Clear
3:52 AM 41.0 °F 37.1 °F 24.1 °F 51% 30.12 in 10.0 mi WNW 5.8 mph - N/A   Clear
4:52 AM 51.1 °F - 19.0 °F 28% 30.12 in 10.0 mi North 8.1 mph - N/A   Clear
5:52 AM 51.1 °F - 18.0 °F 27% 30.14 in 10.0 mi North 9.2 mph - N/A   Clear
6:52 AM 55.0 °F - 16.0 °F 22% 30.15 in 10.0 mi North 5.8 mph - N/A   Clear
7:52 AM 60.1 °F - 21.9 °F 23% 30.15 in 10.0 mi Calm Calm - N/A   Clear
8:52 AM 72.0 °F - 12.9 °F 10% 30.15 in 10.0 mi NNW 5.8 mph - N/A   Clear
9:52 AM 77.0 °F - 12.9 °F 9% 30.15 in 10.0 mi NNW 3.5 mph - N/A   Clear
10:52 AM 81.0 °F - 9.0 °F 6% 30.13 in 10.0 mi Calm Calm - N/A   Clear
11:52 AM 84.0 °F - 7.0 °F 5% 30.10 in 10.0 mi North 4.6 mph - N/A   Clear
12:52 PM 84.9 °F - 7.0 °F 5% 30.06 in 10.0 mi Calm Calm - N/A   Clear
1:52 PM 88.0 °F - 10.0 °F 5% 30.02 in 10.0 mi South 11.5 mph 16.1 mph N/A   Clear
2:52 PM 88.0 °F - 9.0 °F 5% 29.99 in 10.0 mi South 6.9 mph - N/A   Clear
3:52 PM 88.0 °F - 16.0 °F 7% 29.95 in 10.0 mi SSE 15.0 mph 19.6 mph N/A   Clear
4:52 PM 84.9 °F - 14.0 °F 7% 29.93 in 10.0 mi SE 11.5 mph - N/A   Clear
5:52 PM 84.0 °F - 10.9 °F 6% 29.91 in 10.0 mi SE 9.2 mph - N/A   Clear
6:52 PM 79.0 °F - 21.0 °F 12% 29.90 in 10.0 mi SE 4.6 mph - N/A   Clear
7:52 PM 68.0 °F - 28.9 °F 23% 29.90 in 10.0 mi South 5.8 mph - N/A   Clear
8:52 PM 61.0 °F - 28.9 °F 30% 29.91 in 10.0 mi SSW 3.5 mph - N/A   Clear
9:52 PM 57.9 °F - 30.0 °F 35% 29.92 in 10.0 mi North 3.5 mph - N/A   Clear
10:52 PM 55.9 °F - 30.9 °F 39% 29.91 in 10.0 mi NNW 4.6 mph - N/A   Clear
11:52 PM 60.1 °F - 30.9 °F 33% 29.91 in 10.0 mi Calm Calm - N/A   Clear